Location: Mentone
(34.5413°N, 85.5351°W)
Time: 10:47:10
(UTC-06:00)

Transit 2A Rocket - Visible Passes

Search period start: 22 February 2018 00:00
Search period end: 04 March 2018 00:00
Orbit: 587 x 916 km, 66.7° (Epoch: 22 February)

Date Brightness Start Highest point End Pass type
(mag) Time Alt. Az. Time Alt. Az. Time Alt. Az.
22 Feb 6.2 17:49:40 10° NW 17:54:18 42° WSW 17:58:34 10° S visible
24 Feb 8.0 18:09:07 10° WNW 18:11:27 14° WSW 18:13:43 10° SW visible
25 Feb 8.9 05:17:25 10° ESE 05:17:57 10° ESE 05:18:29 10° E visible
27 Feb 7.7 05:30:01 10° SSE 05:35:07 28° ESE 05:40:10 10° NE visible
28 Feb 8.2 04:49:25 10° SE 04:52:57 16° ESE 04:56:28 10° ENE visible
01 Mar 5.8 05:46:31 10° SSW 05:52:35 71° ESE 05:58:31 10° NNE visible
02 Mar 6.8 05:04:36 10° S 05:10:15 41° ESE 05:15:48 10° NE visible
03 Mar 7.6 04:23:19 10° SSE 04:28:01 24° ESE 04:32:39 10° NE visible
